Satellite-Ground Cal/Val Site Overpasses Predictions

Prediction of Satellite NPP Overpassing Cal/Val Site: Antarctic Dome C

Ground Cal/Val Site Location: Latitude: -75.10, Longitude: 123.35; Satellite-Ground Site NADIR distance within 100 km.

Table of predicted overpasses for the next 14.0 days since TLE Epoch: 11/16/2019
Interval Starting Time Ending Time Minimum Distance Time Minimum Distance (km)
1 11/16/2019 07:31:34 11/16/2019 07:32:03 11/16/2019 07:31:48 3.60
2 11/19/2019 14:54:59 11/19/2019 14:55:28 11/19/2019 14:55:13 20.23
3 11/20/2019 14:36:17 11/20/2019 14:36:31 11/20/2019 14:36:24 86.84
4 11/21/2019 07:37:48 11/21/2019 07:38:15 11/21/2019 07:38:02 37.88
5 11/22/2019 07:19:02 11/22/2019 07:19:22 11/22/2019 07:19:12 72.12
6 11/24/2019 15:01:16 11/24/2019 15:01:40 11/24/2019 15:01:28 57.22
7 11/25/2019 14:42:25 11/25/2019 14:42:50 11/25/2019 14:42:37 51.96
8 11/26/2019 07:44:06 11/26/2019 07:44:26 11/26/2019 07:44:16 73.05
9 11/27/2019 07:25:12 11/27/2019 07:25:39 11/27/2019 07:25:26 34.94


NCC Satellite Cal/Val Overpasses Prediction Service
